This demonstration page uses our WeatherBlox Daily Observations layout. Learn more.

Left ArrowRight Arrow

Hourly Observations for August 11, 2019

Temp ( °F °C ) Dew Point ( °F °C ) Humidity (%) Winds ( mph kmh ) Pressure ( in mb ) Visibility ( mi km ) Precip ( " mm )
12:56 am 00:56 Cloudy 81 27 75 24 84 84 SSE 5 7 29.89 1012 10 16 0.00 0.00
1:56 am 01:56 Cloudy 81 27 75 24 84 84 ESE 5 7 29.89 1012 10 16 0.00 0.00
2:56 am 02:56 Cloudy 79 26 75 24 89 89 Calm 29.88 1012 10 16 0.00 0.00
3:56 am 03:56 Cloudy 79 26 75 24 89 89 Calm 29.90 1013 10 16 0.00 0.00
4:56 am 04:56 Cloudy 79 26 75 24 89 89 ESE 3 6 29.90 1012 10 16 0.00 0.00
5:56 am 05:56 Cloudy with Nearby Thunderstorms 79 26 75 24 89 89 SE 6 9 29.87 1012 10 16 0.00 0.00
6:41 am 06:41 Cloudy with Thunderstorms 79 26 73 23 84 84 WSW 3 6 29.91 1013 10 16 0.00 0.00
6:56 am 06:56 Cloudy with Thunderstorms 77 25 70 21 79 79 NW 9 15 29.93 1014 10 16 0.00 0.00
7:17 am 07:17 Mostly Cloudy with Thunderstorms 75 24 70 21 83 83 VRB 7 11 29.98 1015 1 1 0.00 0.00
7:26 am 07:26 Cloudy with Thunderstorms 73 23 72 22 94 94 ENE 7 11 29.98 1015 1 1 0.00 0.00
7:40 am 07:40 Cloudy with Thunderstorms 72 22 72 22 100 100 NE 14 22 29.97 1015 2 2 0.00 0.00
7:56 am 07:56 Cloudy with Thunderstorms 72 22 72 22 100 100 NNE 13 20 29.96 1015 4 6 0.00 0.00
8:11 am 08:11 Cloudy with Thunderstorms 72 22 70 21 94 94 NNE 10 17 29.97 1015 4 6 0.00 0.00
8:24 am 08:24 Cloudy with Light Rain 72 22 70 21 94 94 NNE 12 19 29.97 1015 5 8 0.00 0.00
8:56 am 08:56 Cloudy with Light Rain 72 22 70 21 94 94 NNE 5 7 29.98 1015 7 11 0.00 0.00
9:56 am 09:56 Partly Cloudy with Light Rain 72 22 70 21 94 94 NE 8 13 29.98 1015 7 11 0.00 0.00
10:56 am 10:56 Partly Cloudy with Light Rain 72 22 70 21 94 94 ESE 5 7 30.01 1016 5 8 0.00 0.00
11:56 am 11:56 Cloudy with Light Rain 73 23 72 22 94 94 SE 7 11 29.96 1015 8 13 0.00 0.00
12:56 pm 12:56 Mostly Cloudy 77 25 70 21 79 79 SSE 8 13 29.95 1014 10 16 0.00 0.00
1:56 pm 13:56 Mostly Cloudy 81 27 68 20 66 66 SSE 6 9 29.95 1014 10 16 0.00 0.00
2:56 pm 14:56 Mostly Cloudy 84 29 70 21 62 62 ESE 6 9 29.93 1014 10 16 0.00 0.00
3:56 pm 15:56 Mostly Cloudy 84 29 70 21 62 62 S 8 13 29.92 1013 10 16 0.00 0.00
4:56 pm 16:56 Mostly Cloudy 84 29 70 21 62 62 S 8 13 29.92 1013 10 16 0.00 0.00
5:56 pm 17:56 Partly Cloudy 84 29 70 21 62 62 SSE 7 11 29.90 1013 10 16 0.00 0.00
6:56 pm 18:56 Mostly Cloudy 84 29 72 22 66 66 E 5 7 29.89 1012 10 16 0.00 0.00
7:56 pm 19:56 Mostly Cloudy 82 28 72 22 70 70 E 6 9 29.89 1012 10 16 0.00 0.00
8:56 pm 20:56 Mostly Clear 81 27 72 22 74 74 ESE 6 9 29.88 1012 10 16 0.00 0.00
9:56 pm 21:56 Mostly Cloudy 79 26 73 23 84 84 ENE 6 9 29.90 1013 10 16 0.00 0.00
10:56 pm 22:56 Mostly Cloudy 77 25 72 22 83 83 ENE 3 6 29.90 1013 10 16 0.00 0.00
11:56 pm 23:56 Cloudy 77 25 72 22 83 83 ESE 6 9 29.90 1013 10 16 0.00 0.00

Powered by AerisWeather